Cecil Field, FL

7:33 PM EDT on July 26, 2017 (GMT -0400)
Cecil

Weather History for KVQQ - March, 2013

Change the Weather History Date:

Friday, March 22, 2013

  Actual Average (KNIP) Record (KNIP)
Temperature  
Mean Temperature 52 °F -  
Max Temperature 66 °F 72 °F 88 °F (2011)
Min Temperature 37 °F 55 °F 39 °F (2001)
Degree Days  
Heating Degree Days 14    
Growing Degree Days 2 (Base 50)    
Moisture  
Dew Point 39 °F    
Average Humidity 73    
Maximum Humidity 93    
Minimum Humidity 32    
Precipitation  
Precipitation 0.00 in - - ()
Sea Level Pressure  
Sea Level Pressure 30.00 in    
Wind  
Wind Speed 2 mph (ENE)    
Max Wind Speed 14 mph    
Max Gust Speed -    
Visibility 10 miles    
Events      
Averages and records for this station are not official NWS values.
T = Trace of Precipitation, MM = Missing Value Source: NWS Daily Summary

Daily Weather History Graph

Daily Weather History Graph

Search for Another Location

Airport or City:

Trip Planner

Search our weather history database for the weather conditions in past years. The results will help you decide how hot, cold, wet, or windy it might be!

Date:

Astronomy

Mar. 22, 2013 Rise Set
Actual Time 7:28 AM EDT 7:40 PM EDT
Civil Twilight 7:04 AM EDT 8:04 PM EDT
Nautical Twilight 6:36 AM EDT 8:32 PM EDT
Astronomical Twilight 6:08 AM EDT 9:00 PM EDT
Moon 3:23 PM EDT (3/22) 4:10 AM EDT (3/22)
Length of Visible Light 12h 59m
Length of Day
12h 11m
Waxing Gibbous, 77% of the Moon is Illuminated
Mar 22
Waxing Gibbous
Mar 27
Full
Apr 3
Last Quarter
Apr 10
New
Apr 18
First Quarter

Hourly Weather History & Observations

Time (EDT) Temp. Windchill Dew Point Humidity Pressure Visibility Wind Dir Wind Speed Gust Speed Precip Events Conditions
12:15 AM 37.4 °F - 32.0 °F 81% 29.97 in 10.0 mi Calm Calm - N/A   Clear
12:35 AM 37.4 °F - 35.6 °F 93% 29.97 in 10.0 mi Calm Calm - N/A   Clear
12:55 AM 37.4 °F - 33.8 °F 87% 29.97 in 10.0 mi Calm Calm - N/A   Clear
1:15 AM 37.4 °F - 35.6 °F 93% 29.97 in 10.0 mi Calm Calm - N/A   Clear
1:35 AM 37.4 °F - 33.8 °F 87% 29.96 in 10.0 mi Calm Calm - N/A   Clear
1:55 AM 37.4 °F - 35.6 °F 93% 29.96 in 10.0 mi Calm Calm - N/A   Clear
2:15 AM 37.4 °F - 35.6 °F 93% 29.97 in 10.0 mi Calm Calm - N/A   Clear
2:35 AM 39.2 °F - 35.6 °F 87% 29.97 in 10.0 mi Calm Calm - N/A   Mostly Cloudy
2:55 AM 39.2 °F - 35.6 °F 87% 29.97 in 10.0 mi Calm Calm - N/A   Partly Cloudy
3:15 AM 39.2 °F - 35.6 °F 87% 29.97 in 10.0 mi Calm Calm - N/A   Clear
3:35 AM 37.4 °F - 35.6 °F 93% 29.97 in 10.0 mi Calm Calm - N/A   Scattered Clouds
3:55 AM 39.2 °F - 37.4 °F 93% 29.96 in 10.0 mi Calm Calm - N/A   Partly Cloudy
4:15 AM 39.2 °F - 37.4 °F 93% 29.96 in 10.0 mi Calm Calm - N/A   Scattered Clouds
4:35 AM 41.0 °F - 37.4 °F 87% 29.96 in 10.0 mi Calm Calm - N/A   Scattered Clouds
4:55 AM 41.0 °F - 39.2 °F 93% 29.97 in 10.0 mi Calm Calm - N/A   Mostly Cloudy
5:15 AM 41.0 °F - 39.2 °F 93% 29.98 in 10.0 mi Calm Calm - N/A   Mostly Cloudy
5:35 AM 42.8 °F - 39.2 °F 87% 29.98 in 10.0 mi Calm Calm - N/A   Mostly Cloudy
5:55 AM 42.8 °F - 39.2 °F 87% 29.99 in 10.0 mi Calm Calm - N/A   Mostly Cloudy
6:15 AM 46.4 °F - 33.8 °F 62% 29.99 in 10.0 mi Calm Calm - N/A   Partly Cloudy
6:35 AM 44.6 °F 40.7 °F 33.8 °F 66% 30.01 in 10.0 mi NNW 6.9 mph - N/A   Clear
6:50 AM 44.6 °F 39.7 °F 33.8 °F 66% 30.02 in 10.0 mi North 9.2 mph - N/A   Clear
7:50 AM 44.6 °F 40.7 °F 32.0 °F 61% 30.05 in 10.0 mi North 6.9 mph - N/A   Clear
8:50 AM 46.4 °F 41.9 °F 28.4 °F 50% 30.06 in 10.0 mi NNE 9.2 mph - N/A   Clear
11:50 AM 59.0 °F - 32.0 °F 36% 30.07 in 10.0 mi East 5.8 mph - N/A   Scattered Clouds
12:50 PM 62.6 °F - 32.0 °F 32% 30.07 in 10.0 mi ESE 11.5 mph - N/A   Scattered Clouds
1:50 PM 64.4 °F - 33.8 °F 32% 30.04 in 10.0 mi ENE 6.9 mph - N/A   Mostly Cloudy
2:50 PM 64.4 °F - 37.4 °F 37% 30.01 in 10.0 mi East 6.9 mph - N/A   Mostly Cloudy
3:50 PM 66.2 °F - 37.4 °F 35% 29.99 in 10.0 mi East 6.9 mph - N/A   Partly Cloudy
4:50 PM 64.4 °F - 41.0 °F 42% 29.99 in 10.0 mi East 9.2 mph - N/A   Scattered Clouds
5:50 PM 64.4 °F - 41.0 °F 42% 29.98 in 10.0 mi East 13.8 mph - N/A   Scattered Clouds
6:50 PM 60.8 °F - 41.0 °F 48% 30.00 in 10.0 mi East 11.5 mph - N/A   Scattered Clouds
7:50 PM 57.2 °F - 44.6 °F 63% 30.02 in 10.0 mi NE 9.2 mph - N/A   Scattered Clouds
8:15 PM 57.2 °F - 44.6 °F 63% 30.03 in 10.0 mi Calm Calm - N/A   Scattered Clouds
8:35 PM 55.4 °F - 44.6 °F 67% 30.03 in 10.0 mi Calm Calm - N/A   Scattered Clouds
8:55 PM 55.4 °F - 44.6 °F 67% 30.03 in 10.0 mi East 3.5 mph - N/A   Scattered Clouds
9:15 PM 55.4 °F - 44.6 °F 67% 30.04 in 10.0 mi Calm Calm - N/A   Partly Cloudy
9:35 PM 55.4 °F - 44.6 °F 67% 30.05 in 10.0 mi Calm Calm - N/A   Mostly Cloudy
9:55 PM 53.6 °F - 44.6 °F 72% 30.05 in 10.0 mi Calm Calm - N/A   Scattered Clouds
10:15 PM 51.8 °F - 44.6 °F 76% 30.05 in 10.0 mi Calm Calm - N/A   Clear
10:35 PM 50.0 °F - 44.6 °F 82% 30.03 in 10.0 mi Calm Calm - N/A   Clear
10:55 PM 48.2 °F - 44.6 °F 87% 30.03 in 10.0 mi Calm Calm - N/A   Clear
11:15 PM 48.2 °F - 44.6 °F 87% 30.02 in 10.0 mi Calm Calm - N/A   Clear
11:35 PM 50.0 °F - 46.4 °F 87% 30.02 in 10.0 mi Calm Calm - N/A   Clear
11:55 PM 50.0 °F - 46.4 °F 87% 30.02 in 10.0 mi Calm Calm - N/A   Clear